SQ5DCP-1 Weather Reports


Display with metric or nautical units.
time (UTC)temp
F
wind
direction
speed
MPH
gust
MPH
rain 1hr
in
rain 24hr
in
rain mn
in
humidity
%
barometer
mb
20170623084601 71 292 13.0 0.0 0.00 0.00 0.00 65 999.1
20170623084101 71 202 11.0 0.0 0.00 0.00 0.00 66 999.1
20170623083601 71 270 10.0 0.0 0.00 0.00 0.00 66 999.2
20170623083101 71 270 13.0 0.0 0.00 0.00 0.00 65 999.2
20170623082601 71 270 11.0 0.0 0.00 0.00 0.00 66 999.2
20170623082100 71 292 7.0 0.0 0.00 0.00 0.00 66 999.2
20170623081601 71 225 7.0 0.0 0.00 0.00 0.00 67 999.1
20170623081101 70 292 8.0 0.0 0.00 0.00 0.00 68 999.0
20170623080601 70 225 8.0 0.0 0.00 0.00 0.00 67 999.0
20170623080101 70 247 12.0 0.0 0.00 0.00 0.00 66 999.0
20170623075601 71 292 7.0 0.0 0.00 0.00 0.00 67 999.0
20170623075101 71 270 7.0 0.0 0.00 0.00 0.00 68 998.9
20170623074602 70 247 9.0 0.0 0.00 0.00 0.00 69 998.9
20170623074101 70 247 3.0 0.0 0.00 0.00 0.00 69 998.8
20170623073601 70 270 2.0 0.0 0.00 0.00 0.00 70 998.8
20170623073101 70 270 7.0 0.0 0.00 0.00 0.00 70 998.7
20170623072601 69 270 10.0 0.0 0.00 0.00 0.00 71 998.7
20170623072101 69 270 6.0 0.0 0.00 0.00 0.00 73 998.8
20170623071601 68 270 7.0 0.0 0.00 0.00 0.00 73 998.8
20170623071101 68 270 6.0 0.0 0.00 0.00 0.00 73 998.7
20170623070600 68 247 4.0 0.0 0.00 0.00 0.00 74 998.7
20170623070101 68 247 2.0 0.0 0.00 0.00 0.00 74 998.6
20170623065601 68 225 6.0 0.0 0.00 0.00 0.00 74 998.6
20170623065101 67 270 4.0 0.0 0.00 0.00 0.00 75 998.6
20170623064601 67 247 3.0 0.0 0.00 0.00 0.00 75 998.7
20170623064101 67 225 4.0 0.0 0.00 0.00 0.00 76 998.8
20170623063601 67 247 2.0 0.0 0.00 0.00 0.00 76 998.8
20170623063101 66 247 2.0 0.0 0.00 0.00 0.00 76 999.1
20170623062602 66 225 3.0 0.0 0.00 0.00 0.00 76 999.1
20170623062101 66 225 4.0 0.0 0.00 0.00 0.00 76 999.3
20170623061601 66 225 1.0 0.0 0.00 0.00 0.00 76 999.3
20170623061101 65 270 0.0 0.0 0.00 0.00 0.00 76 999.3
20170623060602 65 180 4.0 0.0 0.00 0.00 0.00 76 999.4
20170623060102 65 157 1.0 0.0 0.00 0.00 0.00 76 999.4
20170623055601 65 202 1.0 0.0 0.00 0.00 0.00 76 999.5
20170623055101 65 180 4.0 0.0 0.00 0.00 0.00 76 999.6
20170623054601 65 247 5.0 0.0 0.00 0.00 0.00 75 999.6
20170623054101 65 225 2.0 0.0 0.00 0.00 0.00 75 999.6
20170623053601 65 180 3.0 0.0 0.00 0.00 0.00 74 999.6
20170623053101 65 180 0.0 0.0 0.00 0.00 0.00 74 999.6
20170623052601 65 247 1.0 0.0 0.00 0.00 0.00 74 999.6
20170623052101 65 225 1.0 0.0 0.00 0.00 0.00 74 999.6
20170623051601 65 225 1.0 0.0 0.00 0.00 0.00 74 999.6
20170623051101 65 157 1.0 0.0 0.00 0.00 0.00 74 999.6
20170623050602 65 157 2.0 0.0 0.00 0.00 0.00 74 999.6
20170623050102 65 202 0.0 0.0 0.00 0.00 0.00 74 999.7
20170623045601 65 225 0.0 0.0 0.00 0.00 0.00 73 999.8
20170623045101 65 247 0.0 0.0 0.00 0.00 0.00 73 999.8
20170623044601 65 247 0.0 0.0 0.00 0.00 0.00 73 999.8
20170623044101 65 247 0.0 0.0 0.00 0.00 0.00 73 999.8
20170623043602 65 247 0.0 0.0 0.00 0.00 0.00 72 999.9
20170623043101 66 247 0.0 0.0 0.00 0.00 0.00 72 1000.1
20170623042602 66 247 0.0 0.0 0.00 0.00 0.00 71 1000.1
20170623042101 66 247 0.0 0.0 0.00 0.00 0.00 71 1000.0
20170623041601 66 247 0.0 0.0 0.00 0.00 0.00 71 1000.1
20170623041101 66 247 0.0 0.0 0.00 0.00 0.00 70 1000.2
20170623040601 66 225 2.0 0.0 0.00 0.00 0.00 70 1000.4
20170623040101 66 247 2.0 0.0 0.00 0.00 0.00 70 1000.5
20170623035602 66 247 2.0 0.0 0.00 0.00 0.00 70 1000.6
20170623035101 66 247 3.0 0.0 0.00 0.00 0.00 70 1000.8
20170623034602 66 270 4.0 0.0 0.00 0.00 0.00 70 1001.0
20170623034101 66 247 4.0 0.0 0.00 0.00 0.00 70 1001.2
20170623033601 66 270 4.0 0.0 0.00 0.00 0.00 70 1001.2
20170623033101 66 247 4.0 0.0 0.00 0.00 0.00 70 1001.4
20170623032601 66 225 5.0 0.0 0.00 0.00 0.00 70 1001.4
20170623032101 66 247 7.0 0.0 0.00 0.00 0.00 70 1001.4
20170623031602 66 247 3.0 0.0 0.00 0.00 0.00 70 1001.2
20170623031102 66 315 6.0 0.0 0.00 0.00 0.00 70 1001.1
20170623030601 66 270 3.0 0.0 0.00 0.00 0.00 70 1001.1
20170623030101 66 292 6.0 0.0 0.00 0.00 0.00 70 1001.2
20170623025601 66 270 7.0 0.0 0.00 0.00 0.00 70 1001.2
20170623025101 66 247 6.0 0.0 0.00 0.00 0.00 70 1001.1
20170623024602 66 270 6.0 0.0 0.00 0.00 0.00 70 1001.1
20170623024058 65 247 6.0 0.0 0.00 0.00 0.00 70 1001.0
20170623023558 65 225 9.0 0.0 0.00 0.00 0.00 70 1001.0
20170623023058 65 270 6.0 0.0 0.00 0.00 0.00 70 1001.1
20170623022558 65 247 4.0 0.0 0.00 0.00 0.00 70 1001.2
20170623022059 65 270 5.0 0.0 0.00 0.00 0.00 70 1001.3
20170623021559 65 270 6.0 0.0 0.00 0.00 0.00 71 1001.3
20170623021059 64 247 5.0 0.0 0.00 0.00 0.00 71 1001.4
20170623020558 64 247 6.0 0.0 0.00 0.00 0.00 72 1001.4
20170623020058 63 225 10.0 0.0 0.00 0.00 0.00 73 1001.4
20170623015559 63 247 4.0 0.0 0.00 0.00 0.00 73 1001.3
20170623015059 63 270 7.0 0.0 0.00 0.00 0.00 74 1001.3
20170623014559 62 247 5.0 0.0 0.00 0.00 0.00 73 1001.3
20170623014059 61 247 6.0 0.0 0.00 0.00 0.00 73 1001.1
20170623013559 60 202 2.0 0.0 0.00 0.00 0.00 73 1001.1
20170623013059 60 225 1.0 0.0 0.00 0.00 0.00 73 1001.0
20170623012559 60 225 0.0 0.0 0.00 0.00 0.00 74 1000.9
20170623012058 60 135 0.0 0.0 0.00 0.00 0.00 74 1000.8
20170623011559 60 135 0.0 0.0 0.00 0.00 0.00 73 1000.9
20170623011059 60 135 0.0 0.0 0.00 0.00 0.00 73 1000.7
20170623010559 60 135 0.0 0.0 0.00 0.00 0.00 73 1000.7
20170623010058 60 135 0.0 0.0 0.00 0.00 0.00 73 1000.9
20170623005558 60 112 1.0 0.0 0.00 0.00 0.00 73 1001.0
20170623005058 60 112 1.0 0.0 0.00 0.00 0.00 73 1001.1
20170623004558 60 112 0.0 0.0 0.00 0.00 0.00 73 1001.2
20170623004058 60 112 0.0 0.0 0.00 0.00 0.00 73 1001.2
20170623003559 60 135 1.0 0.0 0.00 0.00 0.00 73 1001.2
20170623003059 60 135 1.0 0.0 0.00 0.00 0.00 73 1001.4
20170623002559 60 112 0.0 0.0 0.00 0.00 0.00 72 1001.5
20170623002059 60 112 1.0 0.0 0.00 0.00 0.00 72 1001.6
20170623001558 60 112 1.0 0.0 0.00 0.00 0.00 72 1001.8
20170623001059 60 112 1.0 0.0 0.00 0.00 0.00 72 1001.8
20170623000558 60 112 0.0 0.0 0.00 0.00 0.00 71 1001.9
20170623000058 61 112 0.0 0.0 0.00 0.00 0.00 71 1001.9
20170622235559 61 112 0.0 0.0 0.00 0.00 0.00 71 1002.0
20170622235058 61 112 0.0 0.0 0.00 0.00 0.00 71 1001.9
20170622234559 61 112 0.0 0.0 0.00 0.00 0.00 71 1001.9
20170622234059 61 112 0.0 0.0 0.00 0.00 0.00 71 1002.1
20170622233559 61 135 1.0 0.0 0.00 0.00 0.00 71 1002.4
20170622233059 61 135 0.0 0.0 0.00 0.00 0.00 71 1002.4
20170622232559 61 135 0.0 0.0 0.00 0.00 0.00 71 1002.5
20170622232059 61 135 0.0 0.0 0.00 0.00 0.00 71 1002.6
20170622231559 61 157 1.0 0.0 0.00 0.00 0.00 71 1002.7
20170622231058 61 135 0.0 0.0 0.00 0.00 0.00 71 1002.7
20170622230558 61 135 0.0 0.0 0.00 0.00 0.00 71 1002.7
20170622230058 61 157 2.0 0.0 0.00 0.00 0.00 71 1002.7
20170622225559 61 157 0.0 0.0 0.00 0.00 0.00 71 1002.7
20170622225059 61 157 0.0 0.0 0.00 0.00 0.00 71 1002.6
20170622224559 61 157 2.0 0.0 0.00 0.00 0.00 71 1002.7
20170622224059 61 157 1.0 0.0 0.00 0.00 0.00 70 1002.7
20170622223559 61 157 0.0 0.0 0.00 0.00 0.00 70 1002.7
20170622223059 61 135 0.0 0.0 0.00 0.00 0.00 70 1002.7
20170622222558 61 135 0.0 0.0 0.00 0.00 0.00 70 1002.7
20170622222059 62 135 1.0 0.0 0.00 0.00 0.00 70 1002.8
20170622221559 62 135 0.0 0.0 0.00 0.00 0.00 70 1002.9
20170622221059 62 112 1.0 0.0 0.00 0.00 0.00 70 1003.0
20170622220559 62 112 0.0 0.0 0.00 0.00 0.00 70 1003.0
20170622220058 62 90 0.0 0.0 0.00 0.00 0.00 70 1003.0
20170622215559 62 90 0.0 0.0 0.00 0.00 0.00 70 1003.2
20170622215058 63 112 0.0 0.0 0.00 0.00 0.00 70 1003.3
20170622214559 63 135 1.0 0.0 0.00 0.00 0.00 70 1003.3
20170622214059 63 135 0.0 0.0 0.00 0.00 0.00 69 1003.4
20170622213559 63 135 0.0 0.0 0.00 0.00 0.00 69 1003.4
20170622213059 63 135 0.0 0.0 0.00 0.00 0.00 69 1003.4
20170622212559 63 135 0.0 0.0 0.00 0.00 0.00 69 1003.5
20170622212059 63 135 0.0 0.0 0.00 0.00 0.00 68 1003.6
20170622211559 63 135 0.0 0.0 0.00 0.00 0.00 68 1003.7
20170622211059 63 135 0.0 0.0 0.00 0.00 0.00 68 1003.8
20170622210559 63 135 0.0 0.0 0.00 0.00 0.00 67 1003.9
20170622210059 64 135 0.0 0.0 0.00 0.00 0.00 67 1004.0
20170622205559 64 135 0.0 0.0 0.00 0.00 0.00 67 1003.9
20170622205059 64 135 0.0 0.0 0.00 0.00 0.00 66 1003.9
20170622204559 64 180 0.0 0.0 0.00 0.00 0.00 66 1004.0
20170622204059 64 202 0.0 0.0 0.00 0.00 0.00 65 1004.1
20170622203600 64 202 0.0 0.0 0.00 0.00 0.00 65 1004.2
20170622203059 65 202 0.0 0.0 0.00 0.00 0.00 64 1004.2
20170622202559 65 202 0.0 0.0 0.00 0.00 0.00 63 1004.2
20170622202059 65 202 0.0 0.0 0.00 0.00 0.00 63 1004.2
20170622201559 65 202 0.0 0.0 0.00 0.00 0.00 62 1004.3
20170622201059 66 202 0.0 0.0 0.00 0.00 0.00 61 1004.4
20170622200559 66 202 0.0 0.0 0.00 0.00 0.00 61 1004.4
20170622200059 67 225 0.0 0.0 0.00 0.00 0.00 60 1004.4
20170622195559 67 180 0.0 0.0 0.00 0.00 0.00 59 1004.5
20170622195059 67 180 0.0 0.0 0.00 0.00 0.00 59 1004.5
20170622194559 68 180 0.0 0.0 0.00 0.00 0.00 58 1004.5
20170622194059 68 225 0.0 0.0 0.00 0.00 0.00 57 1004.6
20170622193600 68 225 0.0 0.0 0.00 0.00 0.00 56 1004.6
20170622193059 69 225 0.0 0.0 0.00 0.00 0.00 55 1004.6
20170622192600 69 112 0.0 0.0 0.00 0.00 0.00 55 1004.7
20170622192059 69 112 0.0 0.0 0.00 0.00 0.00 55 1004.5
20170622191559 69 90 0.0 0.0 0.00 0.00 0.00 54 1004.5
20170622191059 70 22 0.0 0.0 0.00 0.00 0.00 54 1004.5
20170622190600 70 45 0.0 0.0 0.00 0.00 0.00 53 1004.6
20170622190100 70 22 0.0 0.0 0.00 0.00 0.00 53 1004.6
20170622185600 70 22 0.0 0.0 0.00 0.00 0.00 53 1004.7
20170622185059 70 0 0.0 0.0 0.00 0.00 0.00 52 1004.7
20170622184600 71 315 0.0 0.0 0.00 0.00 0.00 52 1004.7
20170622184059 71 315 0.0 0.0 0.00 0.00 0.00 52 1004.6
20170622183559 71 292 0.0 0.0 0.00 0.00 0.00 52 1004.6
20170622183059 72 292 0.0 0.0 0.00 0.00 0.00 51 1004.6
20170622182559 72 292 0.0 0.0 0.00 0.00 0.00 51 1004.6
20170622182100 72 292 0.0 0.0 0.00 0.00 0.00 50 1004.6
20170622181600 72 270 0.0 0.0 0.00 0.00 0.00 49 1004.8
20170622181059 72 270 1.0 0.0 0.00 0.00 0.00 49 1004.7
20170622180559 73 247 0.0 0.0 0.00 0.00 0.00 49 1004.5
20170622180100 73 247 0.0 0.0 0.00 0.00 0.00 48 1004.6
20170622175600 73 247 1.0 0.0 0.00 0.00 0.00 48 1004.5
20170622175059 73 247 1.0 0.0 0.00 0.00 0.00 48 1004.4
20170622174600 74 202 0.0 0.0 0.00 0.00 0.00 47 1004.3
20170622174100 74 225 1.0 0.0 0.00 0.00 0.00 46 1004.4
20170622173600 74 247 0.0 0.0 0.00 0.00 0.00 45 1004.6
20170622173100 74 247 1.0 0.0 0.00 0.00 0.00 45 1004.6
20170622172600 75 247 2.0 0.0 0.00 0.00 0.00 44 1004.6
20170622172100 75 247 1.0 0.0 0.00 0.00 0.00 44 1004.5
20170622171600 75 247 1.0 0.0 0.00 0.00 0.00 43 1004.6
20170622171059 76 247 0.0 0.0 0.00 0.00 0.00 42 1004.8
20170622170559 76 247 0.0 0.0 0.00 0.00 0.00 42 1004.8
20170622170059 76 270 1.0 0.0 0.00 0.00 0.00 41 1004.9
20170622165559 76 270 0.0 0.0 0.00 0.00 0.00 41 1004.9
20170622165059 76 270 0.0 0.0 0.00 0.00 0.00 41 1004.9
20170622164559 76 270 2.0 0.0 0.00 0.00 0.00 41 1005.1
20170622164100 76 247 2.0 0.0 0.00 0.00 0.00 40 1005.2
20170622163559 76 292 4.0 0.0 0.00 0.00 0.00 40 1005.2
20170622163100 77 270 5.0 0.0 0.00 0.00 0.00 40 1005.3
20170622162559 77 270 6.0 0.0 0.00 0.00 0.00 40 1005.4
20170622162100 77 270 5.0 0.0 0.00 0.00 0.00 40 1005.5
20170622161600 77 270 6.0 0.0 0.00 0.00 0.00 40 1005.6
20170622161100 77 270 7.0 0.0 0.00 0.00 0.00 40 1005.8
20170622160559 77 247 3.0 0.0 0.00 0.00 0.00 39 1005.9
20170622160100 77 270 6.0 0.0 0.00 0.00 0.00 39 1005.8
20170622155600 78 247 5.0 0.0 0.00 0.00 0.00 39 1005.9
20170622155059 78 292 7.0 0.0 0.00 0.00 0.00 38 1006.0
20170622154559 78 247 3.0 0.0 0.00 0.00 0.00 38 1005.8
20170622154100 78 247 7.0 0.0 0.00 0.00 0.00 38 1005.7
20170622153600 79 247 10.0 0.0 0.00 0.00 0.00 38 1005.7
20170622153100 78 270 6.0 0.0 0.00 0.00 0.00 38 1005.7
20170622152600 78 270 8.0 0.0 0.00 0.00 0.00 38 1005.8
20170622152100 78 292 7.0 0.0 0.00 0.00 0.00 37 1005.9
20170622151600 79 270 7.0 0.0 0.00 0.00 0.00 36 1005.9
20170622151100 80 270 5.0 0.0 0.00 0.00 0.00 35 1006.0
20170622150600 81 270 8.0 0.0 0.00 0.00 0.00 34 1006.0
20170622150100 81 292 4.0 0.0 0.00 0.00 0.00 34 1005.9
20170622145600 82 315 7.0 0.0 0.00 0.00 0.00 34 1006.1
20170622145100 83 292 10.0 0.0 0.00 0.00 0.00 34 1006.1
20170622144600 83 292 6.0 0.0 0.00 0.00 0.00 37 1006.1
20170622144100 83 270 6.0 0.0 0.00 0.00 0.00 37 1006.1
20170622143600 83 292 5.0 0.0 0.00 0.00 0.00 38 1006.1
20170622143100 82 247 5.0 0.0 0.00 0.00 0.00 38 1006.2
20170622142600 82 247 3.0 0.0 0.00 0.00 0.00 39 1006.3
20170622142100 81 247 4.0 0.0 0.00 0.00 0.00 39 1006.4
20170622141600 81 247 4.0 0.0 0.00 0.00 0.00 38 1006.4
20170622141100 81 247 4.0 0.0 0.00 0.00 0.00 40 1006.5
20170622140600 80 225 4.0 0.0 0.00 0.00 0.00 42 1006.6
20170622140059 79 247 4.0 0.0 0.00 0.00 0.00 42 1006.6
20170622135600 78 247 6.0 0.0 0.00 0.00 0.00 44 1006.6
20170622135100 77 247 3.0 0.0 0.00 0.00 0.00 44 1006.6
20170622134600 76 247 2.0 0.0 0.00 0.00 0.00 43 1006.7
20170622134100 76 247 6.0 0.0 0.00 0.00 0.00 43 1006.7
20170622133600 77 225 5.0 0.0 0.00 0.00 0.00 42 1006.8
20170622133100 77 270 4.0 0.0 0.00 0.00 0.00 41 1006.8
20170622132600 77 270 6.0 0.0 0.00 0.00 0.00 42 1006.9
20170622132100 77 247 4.0 0.0 0.00 0.00 0.00 44 1007.0
20170622131600 77 225 6.0 0.0 0.00 0.00 0.00 43 1007.1
20170622131100 77 270 6.0 0.0 0.00 0.00 0.00 44 1007.1
20170622130600 77 247 3.0 0.0 0.00 0.00 0.00 44 1007.0
20170622130100 76 247 2.0 0.0 0.00 0.00 0.00 45 1006.9
20170622125600 76 270 4.0 0.0 0.00 0.00 0.00 43 1007.0
20170622125100 76 225 4.0 0.0 0.00 0.00 0.00 44 1007.0
20170622124601 76 270 4.0 0.0 0.00 0.00 0.00 44 1007.0
20170622124101 76 247 4.0 0.0 0.00 0.00 0.00 43 1007.1
20170622123601 76 247 5.0 0.0 0.00 0.00 0.00 43 1007.1
20170622123100 76 247 3.0 0.0 0.00 0.00 0.00 43 1007.1
20170622122601 76 202 3.0 0.0 0.00 0.00 0.00 44 1007.2
20170622122100 75 247 2.0 0.0 0.00 0.00 0.00 44 1007.1
20170622121600 75 247 3.0 0.0 0.00 0.00 0.00 43 1007.4
20170622121100 75 337 9.0 0.0 0.00 0.00 0.00 42 1007.4
20170622120601 75 270 6.0 0.0 0.00 0.00 0.00 41 1007.5
20170622120101 75 247 9.0 0.0 0.00 0.00 0.00 41 1007.5
20170622115600 74 225 8.0 0.0 0.00 0.00 0.00 44 1007.5
20170622115100 74 247 5.0 0.0 0.00 0.00 0.00 46 1007.5
20170622114600 74 247 4.0 0.0 0.00 0.00 0.00 45 1007.6
20170622114101 74 270 3.0 0.0 0.00 0.00 0.00 45 1007.7
20170622113601 74 225 6.0 0.0 0.00 0.00 0.00 46 1007.7
20170622113101 74 225 4.0 0.0 0.00 0.00 0.00 44 1007.8
20170622112600 74 270 10.0 0.0 0.00 0.00 0.00 45 1007.8
20170622112100 73 292 7.0 0.0 0.00 0.00 0.00 46 1007.9
20170622111601 73 247 2.0 0.0 0.00 0.00 0.00 46 1007.8
20170622111100 73 225 5.0 0.0 0.00 0.00 0.00 47 1007.9
20170622110601 73 292 2.0 0.0 0.00 0.00 0.00 48 1008.0
20170622110101 73 270 5.0 0.0 0.00 0.00 0.00 48 1008.0
20170622105600 73 225 4.0 0.0 0.00 0.00 0.00 47 1008.1
20170622105101 73 315 6.0 0.0 0.00 0.00 0.00 47 1008.1
20170622104601 72 315 4.0 0.0 0.00 0.00 0.00 47 1008.3
20170622104101 72 270 8.0 0.0 0.00 0.00 0.00 47 1008.3
20170622103601 72 225 2.0 0.0 0.00 0.00 0.00 46 1008.4
20170622103100 72 247 1.0 0.0 0.00 0.00 0.00 47 1008.3
20170622102601 72 270 9.0 0.0 0.00 0.00 0.00 47 1008.4
20170622102101 72 270 5.0 0.0 0.00 0.00 0.00 48 1008.5
20170622101601 72 292 6.0 0.0 0.00 0.00 0.00 47 1008.5
20170622101101 72 247 2.0 0.0 0.00 0.00 0.00 46 1008.5
20170622100601 72 270 9.0 0.0 0.00 0.00 0.00 45 1008.6
20170622100101 72 225 7.0 0.0 0.00 0.00 0.00 46 1008.6
20170622095601 73 292 10.0 0.0 0.00 0.00 0.00 44 1008.7
20170622095101 72 247 12.0 0.0 0.00 0.00 0.00 47 1008.6
20170622094601 72 270 1.0 0.0 0.00 0.00 0.00 47 1008.6
20170622094101 72 292 9.0 0.0 0.00 0.00 0.00 46 1008.6
20170622093600 71 292 7.0 0.0 0.00 0.00 0.00 49 1008.8
20170622093101 70 247 4.0 0.0 0.00 0.00 0.00 48 1008.8
20170622092601 70 270 5.0 0.0 0.00 0.00 0.00 49 1008.7
20170622092101 70 292 6.0 0.0 0.00 0.00 0.00 49 1008.7
20170622091601 70 270 4.0 0.0 0.00 0.00 0.00 50 1008.8
20170622091101 70 270 3.0 0.0 0.00 0.00 0.00 50 1008.7
20170622090601 70 292 8.0 0.0 0.00 0.00 0.00 52 1008.5
20170622090101 70 270 6.0 0.0 0.00 0.00 0.00 52 1008.5
20170622085600 69 247 3.0 0.0 0.00 0.00 0.00 53 1008.5
20170622085101 69 315 5.0 0.0 0.00 0.00 0.00 52 1008.6